Location: ?
(35.4064°N, 139.3593°E)
Time: 08:28:33
(UTC+00:00)

SPOT 5 - Visible Passes

Search period start: 24 July 2024 00:00
Search period end: 03 August 2024 00:00
Orbit: 621 x 807 km, 98.1° (Epoch: 24 July)

Date Brightness Start Highest point End Pass type
(mag) Time Alt. Az. Time Alt. Az. Time Alt. Az.
24 Jul 4.0 10:42:37 12° SE 10:46:26 29° ENE 10:50:55 10° N visible
24 Jul 4.6 12:21:45 19° SW 12:24:18 28° W 12:28:46 10° NW visible
25 Jul 2.9 11:29:43 25° SSE 11:32:43 86° ENE 11:38:00 10° N visible
26 Jul 4.2 10:37:41 12° ESE 10:41:34 27° ENE 10:45:55 10° NNE visible
26 Jul 4.4 12:16:50 21° SW 12:19:22 32° W 12:24:01 10° NNW visible
27 Jul 3.0 11:24:48 25° SSE 11:27:49 77° ENE 11:33:06 10° N visible
27 Jul 5.7 13:05:41 10° W 13:06:21 10° W 13:07:02 10° W visible
28 Jul 4.3 10:32:46 11° ESE 10:36:43 24° ENE 10:40:54 10° NNE visible
28 Jul 4.3 12:11:55 23° SW 12:14:26 36° W 12:19:16 10° NNW visible
29 Jul 3.0 11:19:54 25° SSE 11:22:55 69° ENE 11:28:12 10° N visible
29 Jul 5.6 12:59:29 10° WSW 13:01:22 12° W 13:03:17 10° WNW visible
30 Jul 4.4 10:27:54 10° ESE 10:31:50 22° ENE 10:35:52 10° NNE visible
30 Jul 4.1 12:07:01 25° SSW 12:09:30 40° W 12:14:28 10° NNW visible
31 Jul 3.1 11:15:00 25° SSE 11:18:01 62° ENE 11:23:17 10° N visible
31 Jul 5.5 12:54:08 11° WSW 12:56:23 14° W 12:58:58 10° WNW visible
01 Aug 4.6 10:23:14 10° ESE 10:26:59 20° ENE 10:30:47 10° NNE visible
01 Aug 3.9 12:02:07 27° SSW 12:04:32 45° W 12:09:38 10° NNW visible
02 Aug 3.2 11:10:06 24° SE 11:13:07 56° ENE 11:18:20 10° N visible
02 Aug 5.4 12:49:15 12° WSW 12:51:24 15° W 12:54:29 10° NW visible
